Change the Weather History Date:

Wednesday, January 8, 2014

  Actual Average Record
Temperature  
Mean Temperature 33 °F -  
Max Temperature 46 °F 55 °F 72 °F (2008)
Min Temperature 20 °F 37 °F 17 °F (2015)
Degree Days  
Heating Degree Days 32    
Month to date heating degree days 222  
Moisture  
Dew Point 8 °F    
Average Humidity 39    
Maximum Humidity 71    
Minimum Humidity 19    
Precipitation  
Precipitation 0.00 in - - ()
Month to date precipitation 0.56  
Year to date precipitation 0.56  
Sea Level Pressure  
Sea Level Pressure 30.53 in    
Wind  
Wind Speed 3 mph (ENE)    
Max Wind Speed 8 mph    
Max Gust Speed 11 mph    
Visibility 10 miles    
Events      
Averages and records for this station are not official NWS values.
T = Trace of Precipitation, MM = Missing Value Source: NWS Daily Summary

Daily Weather History Graph

Daily Weather History Graph

Search for Another Location

Airport or City:

Trip Planner

Search our weather history database for the weather conditions in past years. The results will help you decide how hot, cold, wet, or windy it might be!

Date:

Astronomy

Jan. 08, 2014 Rise Set
Actual Time 7:32 AM EST 5:37 PM EST
Civil Twilight 7:05 AM EST 6:04 PM EST
Nautical Twilight 6:34 AM EST 6:35 PM EST
Astronomical Twilight 6:04 AM EST 7:05 PM EST
Moon 12:19 PM EST (1/8) 12:47 AM EST (1/8)
Length of Visible Light 10h 58m
Length of Day
10h 04m
First Quarter, 56% of the Moon is Illuminated
Jan 8
First Quarter
Jan 15
Full
Jan 24
Last Quarter
Jan 30
New
Feb 6
First Quarter

Hourly Weather History & Observations

Time (EST) Temp. Windchill Dew Point Humidity Pressure Visibility Wind Dir Wind Speed Gust Speed Precip Events Conditions
12:53 AM 23.0 °F - 5.0 °F 46% 30.51 in 10.0 mi Calm Calm - N/A   Clear
1:53 AM 24.1 °F 19.7 °F 3.0 °F 40% 30.52 in 10.0 mi WNW 3.5 mph - N/A   Clear
2:53 AM 23.0 °F - 5.0 °F 46% 30.52 in 10.0 mi Calm Calm - N/A   Clear
3:53 AM 21.9 °F - 6.1 °F 51% 30.52 in 10.0 mi Calm Calm - N/A   Clear
4:53 AM 21.0 °F - 8.1 °F 57% 30.52 in 10.0 mi Calm Calm - N/A   Clear
5:53 AM 21.0 °F - 10.0 °F 63% 30.53 in 10.0 mi Calm Calm - N/A   Clear
6:53 AM 21.0 °F - 9.0 °F 60% 30.54 in 10.0 mi Calm Calm - N/A   Clear
7:53 AM 21.0 °F 16.2 °F 14.0 °F 74% 30.56 in 10.0 mi NNE 3.5 mph - N/A   Clear
8:53 AM 27.0 °F 23.0 °F 8.1 °F 45% 30.58 in 10.0 mi ENE 3.5 mph - N/A   Clear
9:53 AM 30.0 °F 24.1 °F 8.1 °F 40% 30.60 in 10.0 mi East 5.8 mph - N/A   Clear
10:53 AM 32.0 °F 27.5 °F 8.1 °F 37% 30.59 in 10.0 mi SE 4.6 mph - N/A   Clear
11:53 AM 36.0 °F 31.1 °F 8.1 °F 31% 30.57 in 10.0 mi ESE 5.8 mph - N/A   Clear
12:53 PM 39.9 °F 36.7 °F 8.1 °F 27% 30.54 in 10.0 mi North 4.6 mph - N/A   Clear
1:53 PM 43.0 °F 41.3 °F 6.1 °F 22% 30.51 in 10.0 mi East 3.5 mph - N/A   Clear
2:53 PM 45.0 °F 41.8 °F 6.1 °F 20% 30.49 in 10.0 mi Variable 5.8 mph - N/A   Clear
3:53 PM 46.0 °F 43.9 °F 6.1 °F 20% 30.50 in 10.0 mi ENE 4.6 mph - N/A   Clear
4:53 PM 46.0 °F 44.8 °F 6.1 °F 20% 30.50 in 10.0 mi SE 3.5 mph - N/A   Clear
5:53 PM 43.0 °F - 8.1 °F 24% 30.50 in 10.0 mi Calm Calm - N/A   Clear
6:53 PM 42.1 °F 39.2 °F 9.0 °F 26% 30.50 in 10.0 mi East 4.6 mph - N/A   Clear
7:53 PM 39.0 °F 35.7 °F 10.0 °F 30% 30.52 in 10.0 mi East 4.6 mph - N/A   Clear
8:53 PM 37.0 °F 33.3 °F 12.0 °F 36% 30.53 in 10.0 mi ENE 4.6 mph - N/A   Clear
9:53 PM 37.0 °F 32.4 °F 12.0 °F 36% 30.52 in 10.0 mi ENE 5.8 mph - N/A   Clear
10:53 PM 35.1 °F 30.1 °F 12.9 °F 40% 30.50 in 10.0 mi ENE 5.8 mph - N/A   Clear
11:53 PM 35.1 °F 32.2 °F 10.9 °F 37% 30.50 in 10.0 mi East 3.5 mph - N/A   Clear